Back to catalog

USA 561

AliveMilitaryVLEO
NORAD 65707·PAYLOAD·🇺🇸 United States

Launched Sep 22, 2025 from Vandenberg Space Force Base

Loading…

Next Passes (next 24 hours)

TLE

StaleSource: Mike McCants

Epoch: Aug 11, 2026, 21:10 UTC

1 65707U 25213D   26223.88257146 0.00000000  00000-0  00000-0 0    07
2 65707  70.0170 247.1162 0003000 224.4453 135.5547 14.96713300    06

Track USA 561 in real time with AllMySat

Download on the App Store